TimeMST,TemperatureF,Dew PointF,Humidity,Sea Level PressureIn,VisibilityMPH,Wind Direction,Wind SpeedMPH,Gust SpeedMPH,PrecipitationIn,Events,Conditions,WindDirDegrees,DateUTC
12:53 AM,46.0,30.0,54,30.12,10.0,Calm,Calm,-,N/A,,Clear,0,2013-02-23 07:53:00
1:53 AM,44.1,32.0,63,30.11,10.0,Calm,Calm,-,N/A,,Clear,0,2013-02-23 08:53:00
2:53 AM,43.0,30.9,62,30.09,10.0,Calm,Calm,-,N/A,,Clear,0,2013-02-23 09:53:00
3:53 AM,41.0,33.1,73,30.07,10.0,Calm,Calm,-,N/A,,Clear,0,2013-02-23 10:53:00
5:53 AM,39.9,33.1,77,30.06,10.0,Calm,Calm,-,N/A,,Clear,0,2013-02-23 12:53:00
6:53 AM,39.0,30.9,73,30.06,10.0,Calm,Calm,-,N/A,,Clear,0,2013-02-23 13:53:00
7:53 AM,41.0,32.0,70,30.08,10.0,Calm,Calm,-,N/A,,Clear,0,2013-02-23 14:53:00
8:53 AM,46.0,32.0,58,30.09,10.0,Calm,Calm,-,N/A,,Clear,0,2013-02-23 15:53:00
9:53 AM,52.0,30.0,43,30.08,10.0,Variable,3.5,-,N/A,,Clear,0,2013-02-23 16:53:00
10:53 AM,54.0,28.0,37,30.06,10.0,SE,6.9,-,N/A,,Clear,130,2013-02-23 17:53:00
11:53 AM,55.0,28.0,35,30.03,10.0,South,4.6,-,N/A,,Clear,180,2013-02-23 18:53:00
12:53 PM,57.9,26.1,30,29.98,10.0,Variable,6.9,-,N/A,,Clear,0,2013-02-23 19:53:00
1:53 PM,59.0,27.0,29,29.92,10.0,Variable,4.6,-,N/A,,Clear,0,2013-02-23 20:53:00
2:53 PM,60.1,27.0,28,29.88,10.0,Variable,4.6,-,N/A,,Clear,0,2013-02-23 21:53:00
3:53 PM,60.1,26.1,27,29.85,10.0,Variable,3.5,-,N/A,,Clear,0,2013-02-23 22:53:00
4:53 PM,61.0,24.1,24,29.83,10.0,SSW,5.8,-,N/A,,Clear,210,2013-02-23 23:53:00
5:53 PM,61.0,24.1,24,29.82,10.0,SSW,6.9,-,N/A,,Clear,210,2013-02-24 00:53:00
6:53 PM,59.0,26.1,28,29.83,10.0,Calm,Calm,-,N/A,,Clear,0,2013-02-24 01:53:00
7:53 PM,55.9,28.0,34,29.83,10.0,Calm,Calm,-,N/A,,Clear,0,2013-02-24 02:53:00
8:53 PM,54.0,28.9,38,29.84,10.0,Calm,Calm,-,N/A,,Clear,0,2013-02-24 03:53:00
9:53 PM,52.0,30.9,45,29.84,10.0,NNE,3.5,-,N/A,,Clear,30,2013-02-24 04:53:00
10:53 PM,51.1,32.0,48,29.83,10.0,Calm,Calm,-,N/A,,Mostly Cloudy,0,2013-02-24 05:53:00
11:53 PM,50.0,34.0,54,29.82,10.0,Calm,Calm,-,N/A,,Mostly Cloudy,0,2013-02-24 06:53:00